Location: Dalton
(34.7700°N, 84.9700°W)
Time: 13:48:59
(UTC-04:00)

Tiangong 1 - Pass Details

Date: 10 October 2017
Orbit: 293 x 320 km, 42.8° (Epoch: 21 October)

Event Time Altitude Azimuth Distance (km) Brightness Sun altitude
Rises 20:54:05 0° 302° (WNW) 2,032 5.8 -21.9°
Reaches altitude 10° 20:56:31 10° 325° (NW) 1,196 4.1 -22.4°
Enters shadow 20:57:00 12° 333° (NNW) 1,072 3.7 -22.5°
